AV357 Weather Reports


time (UTC)temp
C
wind
direction
speed
KPH
gust
KPH
rain 1hr
cm
rain 24hr
cm
rain mn
cm
humidity
%
barometer
mb
20260505193504 11 64 0.0 1.6 0.00 0.76 0.69 93 1023.0
20260505193003 11 72 0.0 3.2 0.00 0.76 0.69 93 1022.9
20260505192504 11 75 0.0 3.2 0.00 0.76 0.69 93 1022.9
20260505192004 11 68 0.0 3.2 0.00 0.79 0.69 94 1022.7
20260505191503 11 68 0.0 3.2 0.00 0.79 0.69 93 1022.9
20260505191003 11 0 0.0 0.0 0.00 0.79 0.69 93 1022.8
20260505190712 11 0 0.0 0.0 0.00 0.79 0.69 93 1022.6
20260505190003 11 0 0.0 0.0 0.00 0.79 0.69 93 1022.4
20260505185714 12 0 0.0 0.0 0.00 0.81 0.69 93 1022.5
20260505185003 12 0 0.0 0.0 0.00 0.81 0.69 93 1022.4
20260505184504 12 0 0.0 0.0 0.00 0.81 0.69 92 1022.5
20260505184003 12 0 0.0 0.0 0.00 0.81 0.69 92 1022.5
20260505183503 12 0 0.0 0.0 0.00 0.81 0.69 92 1022.5
20260505183003 12 0 0.0 0.0 0.00 0.81 0.69 92 1022.5
20260505182503 12 0 0.0 0.0 0.00 0.81 0.69 91 1022.6
20260505182003 12 0 0.0 0.0 0.00 0.81 0.69 91 1022.4
20260505181503 12 97 0.0 1.6 0.00 0.81 0.69 91 1022.4
20260505181003 12 243 0.0 3.2 0.00 0.81 0.69 91 1022.6
20260505180503 11 263 0.0 3.2 0.00 0.81 0.69 91 1022.5
20260505180003 11 223 0.0 3.2 0.00 0.81 0.69 91 1022.4
20260505175503 11 224 1.6 3.2 0.00 0.81 0.69 92 1022.5
20260505175003 12 229 1.6 3.2 0.00 0.81 0.69 92 1022.4
20260505174503 12 209 1.6 3.2 0.00 0.81 0.69 91 1022.2
20260505174003 12 229 1.6 4.8 0.00 0.81 0.69 91 1022.4
20260505173503 12 242 1.6 4.8 0.00 0.84 0.69 90 1022.3
20260505173003 12 231 1.6 3.2 0.00 0.84 0.69 89 1022.4
20260505172714 12 243 1.6 3.2 0.00 0.84 0.69 89 1022.1
20260505172003 12 215 0.0 3.2 0.00 0.84 0.69 88 1022.1
20260505171503 12 138 0.0 3.2 0.00 0.84 0.69 87 1021.9
20260505171213 12 153 1.6 4.8 0.00 0.84 0.69 87 1022.0
20260505170503 12 237 1.6 4.8 0.00 0.86 0.69 88 1022.4
20260505170003 12 208 1.6 3.2 0.00 0.86 0.69 87 1022.4
20260505165503 12 139 1.6 3.2 0.00 0.86 0.69 86 1022.4
20260505165003 12 122 0.0 3.2 0.00 0.86 0.69 86 1022.5
20260505164503 12 132 0.0 3.2 0.00 0.86 0.69 85 1022.5
20260505164003 12 151 1.6 4.8 0.00 0.86 0.69 85 1022.3
20260505163503 12 151 1.6 4.8 0.00 0.86 0.69 85 1022.4
20260505163003 12 164 1.6 3.2 0.00 0.86 0.69 85 1022.4
20260505162503 12 159 1.6 4.8 0.00 0.86 0.69 85 1022.5
20260505162003 12 142 1.6 6.4 0.00 0.86 0.69 84 1022.5
20260505161503 12 140 1.6 6.4 0.00 0.86 0.69 84 1022.5
20260505161003 12 145 1.6 6.4 0.00 0.86 0.69 84 1022.4
20260505160503 13 141 1.6 4.8 0.00 0.86 0.69 84 1022.4
20260505153214 13 206 1.6 4.8 0.00 0.86 0.69 82 1022.3
20260505152504 13 176 1.6 4.8 0.00 0.86 0.69 81 1022.3
20260505152003 13 206 1.6 4.8 0.00 0.86 0.69 83 1022.2
20260505151503 13 198 1.6 4.8 0.00 0.86 0.69 83 1022.2
20260505151214 13 167 1.6 4.8 0.00 0.86 0.69 83 1021.9
20260505150713 13 155 1.6 4.8 0.00 0.86 0.69 84 1022.4
20260505140503 12 251 1.6 6.4 0.00 0.86 0.69 88 1022.8
20260505140213 12 163 1.6 6.4 0.00 0.86 0.69 88 1022.8
20260505125003 12 195 1.6 6.4 0.00 0.86 0.69 83 1023.3
20260505124503 12 282 1.6 4.8 0.00 0.86 0.69 84 1023.3
20260505124003 13 301 0.0 4.8 0.00 0.86 0.69 83 1023.2
20260505123503 13 165 0.0 3.2 0.00 0.86 0.69 83 1023.1
20260505123003 12 168 1.6 3.2 0.00 0.86 0.69 85 1023.2
20260505122503 12 176 1.6 4.8 0.00 0.86 0.69 85 1023.2
20260505122213 12 188 1.6 4.8 0.00 0.86 0.69 85 1023.2
20260505121714 12 185 1.6 4.8 0.00 0.86 0.69 84 1023.2
20260505121003 12 162 1.6 6.4 0.00 0.86 0.69 85 1023.2
20260505120504 12 161 1.6 6.4 0.00 0.86 0.69 87 1023.1
20260505120004 12 175 1.6 6.4 0.00 0.86 0.69 87 1023.4
20260505115503 12 229 3.2 9.7 0.00 0.86 0.69 88 1023.6
20260505115003 11 249 3.2 9.7 0.00 0.86 0.69 89 1023.6
20260505114503 11 214 3.2 9.7 0.00 0.86 0.69 90 1023.9
20260505114003 11 202 3.2 9.7 0.00 0.86 0.69 90 1023.8
20260505113713 11 216 3.2 6.4 0.00 0.86 0.69 91 1023.9
20260505113003 11 214 3.2 6.4 0.00 0.86 0.69 91 1024.2
20260505112713 11 186 3.2 6.4 0.00 0.86 0.69 92 1024.2
20260505112214 11 185 3.2 6.4 0.00 0.86 0.69 92 1024.1
20260505111503 11 204 3.2 6.4 0.00 0.86 0.69 92 1024.0
20260505111003 11 219 1.6 4.8 0.00 0.86 0.69 91 1024.1
20260505110503 11 219 1.6 6.4 0.00 0.86 0.69 90 1024.3
20260505102214 11 142 0.0 1.6 0.00 0.91 0.69 84 1024.1
20260505101503 11 228 0.0 1.6 0.00 0.91 0.69 84 1024.3
20260505101003 11 178 0.0 1.6 0.00 0.91 0.69 84 1024.5
20260505100503 11 129 0.0 1.6 0.00 0.91 0.69 85 1024.4
20260505100003 11 138 0.0 1.6 0.00 0.91 0.69 85 1024.1
20260505095713 11 125 0.0 1.6 0.00 0.91 0.69 84 1024.3
20260505095003 11 0 0.0 0.0 0.00 0.91 0.69 86 1024.1
20260505094503 11 75 0.0 1.6 0.00 0.91 0.69 87 1024.3
20260505094214 11 70 0.0 1.6 0.00 0.91 0.69 87 1024.6
20260505093503 11 71 0.0 4.8 0.00 0.91 0.69 88 1024.3
20260505093003 11 122 0.0 1.6 0.00 0.91 0.69 87 1024.4
20260505092503 11 101 0.0 1.6 0.00 0.91 0.69 87 1024.4
20260505092003 11 110 0.0 1.6 0.00 0.91 0.69 87 1024.1
20260505091503 10 153 0.0 1.6 0.00 0.91 0.69 87 1024.4
20260505091214 10 159 0.0 1.6 0.00 0.91 0.69 87 1024.5
20260505090712 10 213 0.0 1.6 0.00 0.91 0.69 89 1024.3
20260505090003 10 128 0.0 1.6 0.00 0.91 0.69 88 1024.5
20260505085503 10 183 0.0 1.6 0.00 0.91 0.69 91 1024.3
20260505085003 10 200 0.0 3.2 0.00 0.91 0.69 91 1024.5
20260505084503 10 223 0.0 3.2 0.00 0.91 0.69 91 1024.5
20260505084003 10 181 1.6 3.2 0.00 0.91 0.69 91 1024.4
20260505083503 10 170 1.6 3.2 0.00 0.91 0.69 92 1024.3
20260505083003 10 239 0.0 3.2 0.00 0.91 0.69 91 1024.3
20260505082714 10 254 0.0 3.2 0.00 0.91 0.69 91 1024.1
20260505082003 10 0 0.0 0.0 0.00 0.91 0.69 90 1024.3
20260505081503 10 301 0.0 1.6 0.00 0.91 0.69 90 1024.0
20260505081003 10 299 0.0 1.6 0.00 0.91 0.69 89 1024.4
20260505080503 10 299 1.6 3.2 0.00 0.91 0.69 89 1024.1
20260505080004 10 296 1.6 4.8 0.00 0.91 0.69 90 1024.1
20260505075503 10 295 1.6 4.8 0.00 0.91 0.69 91 1024.1
20260505075213 10 300 1.6 4.8 0.00 0.91 0.69 90 1024.0
20260505074503 10 322 0.0 1.6 0.00 0.91 0.69 90 1024.0
20260505074003 10 327 0.0 1.6 0.00 0.91 0.69 90 1024.1
20260505073503 10 0 0.0 0.0 0.00 0.91 0.69 90 1024.1
20260505073003 10 296 0.0 1.6 0.00 0.91 0.69 92 1024.1
20260505072503 10 299 0.0 3.2 0.00 0.91 0.69 92 1024.4
20260505072003 10 300 0.0 3.2 0.00 0.91 0.69 91 1024.1
20260505071503 10 0 0.0 0.0 0.00 0.91 0.69 91 1024.0
20260505071213 10 0 0.0 0.0 0.00 0.91 0.69 90 1024.1
20260505070503 10 295 0.0 1.6 0.00 0.91 0.69 91 1024.2
20260505070003 10 290 0.0 1.6 0.00 0.91 0.69 92 1024.0
20260505065503 10 0 0.0 0.0 0.00 0.91 0.69 90 1024.1
20260505065003 10 0 0.0 0.0 0.00 0.91 0.69 90 1024.1
20260505064503 9 299 0.0 3.2 0.00 0.91 0.69 91 1024.1
20260505064003 9 292 1.6 3.2 0.00 0.91 0.69 92 1024.2
20260505063503 9 287 1.6 3.2 0.00 0.91 0.69 93 1024.3
20260505063213 9 284 0.0 1.6 0.00 0.91 0.69 93 1024.0
20260505062503 9 281 0.0 1.6 0.00 0.91 0.69 93 1024.1
20260505062003 9 294 0.0 1.6 0.00 0.91 0.69 93 1024.1
20260505061503 9 296 0.0 1.6 0.00 0.91 0.69 93 1024.1
20260505061003 9 262 0.0 1.6 0.00 0.91 0.69 94 1024.3
20260505060503 9 165 0.0 1.6 0.00 0.91 0.69 94 1024.1
20260505060003 9 134 0.0 1.6 0.00 0.91 0.69 94 1024.4
20260505055503 9 299 0.0 1.6 0.00 0.91 0.69 94 1024.5
20260505055214 9 308 0.0 1.6 0.00 0.91 0.69 94 1024.4
20260505054503 9 65 0.0 1.6 0.00 0.91 0.69 93 1024.0
20260505054003 9 306 0.0 1.6 0.00 0.91 0.69 93 1024.0
20260505053503 9 306 0.0 1.6 0.00 0.91 0.69 93 1023.9
20260505053003 9 0 0.0 0.0 0.00 0.91 0.69 92 1023.8
20260505052503 9 71 0.0 3.2 0.00 0.91 0.69 90 1024.1
20260505052003 9 66 0.0 3.2 0.00 0.91 0.69 91 1024.2
20260505051503 9 63 0.0 4.8 0.03 0.91 0.69 92 1024.0
20260505051003 9 52 0.0 4.8 0.03 0.91 0.69 91 1024.0
20260505050503 9 58 1.6 3.2 0.05 0.91 0.69 92 1024.0
20260505041713 9 0 0.0 0.0 0.25 0.91 0.69 97 1024.5
20260505041003 9 0 0.0 0.0 0.25 0.89 0.66 97 1024.7
20260505040503 9 0 0.0 0.0 0.25 0.86 0.64 97 1024.7
20260505040004 9 0 0.0 0.0 0.25 0.84 0.61 97 1024.9
20260505035503 9 67 0.0 1.6 0.23 0.81 0.58 97 1024.9
20260505035003 9 67 0.0 1.6 0.23 0.79 0.56 97 1024.9
20260505034503 10 0 0.0 0.0 0.23 0.74 0.51 97 1024.9
20260505034003 10 0 0.0 0.0 0.23 0.71 0.48 97 1024.8
20260505033712 10 0 0.0 0.0 0.25 0.71 0.48 97 1025.1
20260505033003 9 301 0.0 1.6 0.25 0.69 0.46 97 1024.9
20260505032503 9 301 0.0 1.6 0.28 0.69 0.46 97 1025.0
20260505032213 10 301 0.0 1.6 0.30 0.69 0.46 97 1025.2
20260505031503 10 0 0.0 0.0 0.33 0.66 0.43 97 1025.1
20260505031003 10 0 0.0 0.0 0.33 0.64 0.41 97 1025.2
20260505030714 10 0 0.0 0.0 0.30 0.61 0.38 97 1025.2
20260505030003 10 0 0.0 0.0 0.30 0.58 0.36 97 1025.4
20260505025503 10 0 0.0 0.0 0.30 0.58 0.36 97 1025.3
20260505025003 10 0 0.0 0.0 0.30 0.56 0.33 97 1025.4
20260505024503 10 0 0.0 0.0 0.25 0.51 0.28 97 1025.5
20260505024003 10 0 0.0 0.0 0.23 0.48 0.25 97 1025.6
20260505023503 9 0 0.0 0.0 0.20 0.46 0.23 97 1025.4
20260505023213 9 0 0.0 0.0 0.18 0.43 0.20 97 1025.6
20260505022503 9 0 0.0 0.0 0.15 0.41 0.18 96 1025.6
20260505022003 9 0 0.0 0.0 0.13 0.38 0.15 96 1025.7
20260505021503 9 302 0.0 1.6 0.08 0.33 0.10 96 1025.5
20260505021003 10 302 0.0 1.6 0.05 0.30 0.08 96 1025.5
20260505020503 10 0 0.0 0.0 0.05 0.30 0.08 96 1025.5
20260505020004 10 0 0.0 0.0 0.03 0.28 0.05 96 1025.5
20260505015503 10 0 0.0 0.0 0.03 0.28 0.05 96 1025.5
20260505015003 10 0 0.0 0.0 0.00 0.25 0.03 96 1025.2
20260505014503 10 0 0.0 0.0 0.00 0.25 0.03 96 1025.4
20260505014213 10 0 0.0 0.0 0.00 0.25 0.03 96 1025.5
20260505013503 10 0 0.0 0.0 0.00 0.25 0.03 96 1025.3
20260505013003 9 0 0.0 0.0 0.00 0.25 0.03 95 1025.5
20260505012503 10 0 0.0 0.0 0.00 0.25 0.03 95 1025.5
20260505012003 10 0 0.0 0.0 0.00 0.25 0.03 95 1025.4
20260505011503 10 290 0.0 1.6 0.03 0.25 0.03 95 1025.5
20260505011003 10 299 0.0 1.6 0.03 0.25 0.03 95 1025.7
20260505010713 10 314 0.0 1.6 0.03 0.25 0.03 95 1025.7
20260505010003 10 57 0.0 3.2 0.03 0.25 0.03 94 1025.6
20260505005503 10 58 0.0 3.2 0.03 0.25 0.03 94 1025.9
20260505005004 10 63 0.0 3.2 0.03 0.25 0.03 95 1026.0
20260505004713 10 63 0.0 3.2 0.03 0.25 0.03 94 1025.9
20260505004003 10 63 0.0 3.2 0.03 0.25 0.03 94 1026.0
20260505003503 10 65 0.0 1.6 0.03 0.25 0.03 93 1026.2
20260505003003 10 0 0.0 0.0 0.03 0.25 0.03 94 1026.5
20260505002503 10 62 0.0 1.6 0.03 0.25 0.03 94 1026.6
20260505002003 10 62 0.0 1.6 0.03 0.25 0.03 94 1026.9
20260505001503 10 43 0.0 1.6 0.00 0.23 0.00 94 1026.8
20260505001003 10 60 0.0 4.8 0.00 0.23 0.00 94 1027.1
20260505000503 10 60 1.6 4.8 0.00 0.23 0.00 94 1027.0
20260505000003 10 59 1.6 3.2 0.00 0.23 0.00 94 1027.2
20260504235503 10 57 0.0 3.2 0.00 0.23 0.00 93 1027.4
20260504235003 10 49 0.0 1.6 0.00 0.23 0.00 94 1027.4
20260504234503 10 49 0.0 1.6 0.00 0.23 0.00 94 1027.7
20260504234003 10 301 0.0 1.6 0.00 0.23 0.00 95 1027.8
20260504233713 10 301 0.0 1.6 0.00 0.23 0.00 95 1027.6
20260504233214 10 296 0.0 1.6 0.00 0.23 0.00 95 1027.9
20260504232503 10 303 0.0 1.6 0.00 0.23 0.00 94 1027.4
20260504232003 10 51 0.0 1.6 0.00 0.23 0.00 95 1027.8
20260504231503 10 335 0.0 1.6 0.00 0.23 0.00 94 1027.8
20260504231003 10 300 0.0 3.2 0.00 0.23 0.00 95 1027.8
20260504230503 10 299 0.0 3.2 0.00 0.23 0.00 94 1027.8
20260504230003 10 0 0.0 0.0 0.00 0.23 0.00 94 1028.0
20260504225503 10 308 0.0 1.6 0.00 0.23 0.00 94 1028.2
20260504225214 10 30 0.0 1.6 0.00 0.23 0.00 94 1028.1
20260504224503 10 73 0.0 1.6 0.00 0.23 0.00 92 1028.0
20260504224003 10 59 0.0 1.6 0.00 0.23 0.00 92 1028.1
20260504223713 10 32 0.0 1.6 0.00 0.23 0.00 92 1028.1
20260504223214 10 35 0.0 1.6 0.00 0.23 0.00 93 1028.2
20260504222503 10 66 0.0 3.2 0.00 0.23 0.00 93 1028.3
20260504222003 10 67 1.6 4.8 0.00 0.23 0.00 92 1028.2
20260504221503 10 64 0.0 4.8 0.00 0.23 0.00 92 1028.3
20260504221003 10 58 0.0 1.6 0.00 0.23 0.00 92 1028.1
20260504220503 10 98 0.0 1.6 0.00 0.23 0.00 92 1028.4
20260504220003 10 69 0.0 1.6 0.00 0.23 0.00 92 1028.4
20260504215503 10 54 0.0 4.8 0.00 0.23 0.23 91 1028.4
20260504215003 10 63 1.6 4.8 0.00 0.23 0.23 91 1028.4
20260504214503 10 67 1.6 4.8 0.00 0.23 0.23 90 1028.6
20260504214003 10 61 1.6 4.8 0.03 0.23 0.23 91 1028.9
20260504213503 10 57 1.6 3.2 0.03 0.23 0.23 92 1028.9
20260504213003 10 66 1.6 4.8 0.03 0.23 0.23 91 1028.8
20260504212503 10 69 1.6 4.8 0.03 0.23 0.23 93 1028.9
20260504212003 10 69 1.6 4.8 0.03 0.23 0.23 93 1028.8
20260504211503 10 66 1.6 4.8 0.03 0.23 0.23 92 1029.0
20260504211003 10 62 1.6 3.2 0.03 0.23 0.23 92 1029.0
20260504210503 10 66 1.6 3.2 0.03 0.23 0.23 91 1028.8
20260504210003 10 67 1.6 3.2 0.03 0.23 0.23 92 1029.1
20260504205503 10 66 1.6 6.4 0.03 0.23 0.23 92 1029.1
20260504205213 10 66 1.6 6.4 0.05 0.23 0.23 92 1029.0
20260504204503 10 65 1.6 3.2 0.05 0.23 0.23 92 1029.1
20260504204003 10 66 0.0 1.6 0.03 0.20 0.20 92 1029.2
20260504203714 10 44 0.0 3.2 0.05 0.20 0.20 92 1029.2
20260504203003 10 43 0.0 3.2 0.05 0.20 0.20 93 1029.2
20260504202503 10 0 0.0 0.0 0.05 0.20 0.20 93 1029.3
20260504202003 10 275 0.0 1.6 0.08 0.20 0.20 92 1029.3
20260504201503 10 285 0.0 3.2 0.08 0.20 0.20 92 1029.2
20260504201003 10 298 0.0 3.2 0.08 0.20 0.20 91 1029.4
20260504200714 10 298 0.0 3.2 0.08 0.20 0.20 90 1029.4
20260504200003 10 308 0.0 1.6 0.08 0.20 0.20 90 1029.0
20260504195503 10 309 0.0 1.6 0.10 0.20 0.20 91 1028.8
20260504195003 10 0 0.0 0.0 0.08 0.18 0.18 90 1029.0
20260504194503 10 0 0.0 0.0 0.08 0.18 0.18 91 1029.0
20260504194212 10 0 0.0 0.0 0.08 0.18 0.18 90 1028.9